Location: Auckland
(36.8670°S, 174.7670°E)
Time: 22:48:31
(UTC+12:00)

A-11 Canister half - Pass Details

Date: 23 July 2019
Orbit: 1526 x 1683 km, 47.3° (Epoch: 21 August)

Event Time Altitude Azimuth Distance (km) Brightness Sun altitude
Rises 06:36:52 0° 337° (NNW) 4,662 11.5 -10.2°
Reaches altitude 10° 06:40:10 10° 345° (NNW) 3,687 11.1 -9.5°
Maximum altitude 06:48:28 38° 49° (NE) 2,208 10.6 -8.0°
Drops below altitude 10° 06:56:55 10° 112° (ESE) 3,775 11.8 -6.4°
Sets 07:00:19 0° 119° (ESE) 4,784 12.2 -5.7°
